Content
SEND FEEDBACK

Daily
Averages
Monthly
Summary
United States of America

CHESTERFIELD, MISSOURI


Home > North America > United States > Missouri
Elevation: 559 feet     Latitude: 38 41N     Longitude: 090 31W

WEATHER
 
SELECT A DAY
Number of Records: 203,490;   Date Range: 1/1/95 - 8/12/14
 
SHARE

PRINT THIS DATA

[ ← Previous Day ]
WEATHER ALMANAC - JUNE 19, 2013
[ Next Day → ]
[ °C ]   °F
Weather ElementAverageHighLow
Temperature76.6 °F84.9 °F (4:51 pm)66.9 °F (5:51 am)
Dewpoint61.5 °F63 °F (8:51 am)57.9 °F (4:51 pm)
Humidity61 %84 % (5:51 am)40 % (4:51 pm)
Barometer30.02 in30.06 in (9:51 am)29.96 in (1:51 am)
Wind Speed4 mph6.9 mph (2:51 am)
Weather ElementAverage
Visibility9.9 mi
Wind DirectionENE (52.6 °)

Weather ElementTotal
Precipitation---
Cooling Degree Days10.9 (Base 65)
Growing Degree Days25.9 (Base 50)
Averaged from 23 records on June 19, 2013
WEATHER CONDITIONS BREAKOUT
WIND DIRECTION BREAKOUT
WEATHER BY HOUR - JUNE 19, 2013
[ °C ]   °F
Local TimeTemperatureDewpointHumidityBarometerVisibilityWind DirectionWind SpeedGust SpeedPrecipitationEventsConditions
1:51 AM71.1 °F61.0 °F70 %29.96 in10.0 miNNE (20°)4.6 mphClear
2:51 AM70.0 °F62.1 °F76 %29.97 in10.0 miNE (50°)6.9 mphClear
3:51 AM69.1 °F62.1 °F78 %29.98 in10.0 miNE (40°)4.6 mphClear
4:51 AM68.0 °F62.1 °F81 %29.99 in10.0 miNNE (30°)4.6 mphClear
5:51 AM66.9 °F62.1 °F84 %30.01 in9.0 miCalmScattered Clouds
6:51 AM66.9 °F62.1 °F84 %30.02 in8.0 miNE (40°)4.6 mphMostly Cloudy
7:51 AM69.1 °F62.1 °F78 %30.04 in10.0 miCalmMostly Cloudy
8:51 AM72.0 °F63.0 °F73 %30.05 in10.0 miENE (60°)3.5 mphMostly Cloudy
9:51 AM77.0 °F63.0 °F62 %30.06 in10.0 miCalmMostly Cloudy
10:51 AM78.1 °F63.0 °F60 %30.05 in10.0 miNE (50°)6.9 mphScattered Clouds
11:51 AM80.1 °F62.1 °F54 %30.05 in10.0 miCalmScattered Clouds
12:51 PM82.0 °F62.1 °F51 %30.04 in10.0 miNNE (30°)5.8 mphScattered Clouds
1:51 PM82.0 °F60.1 °F47 %30.02 in10.0 miESE (120°)4.6 mphScattered Clouds
2:51 PM84.0 °F62.1 °F47 %30.02 in10.0 miVariable6.9 mphMostly Cloudy
3:51 PM84.0 °F60.1 °F44 %30.01 in10.0 miSSE (160°)4.6 mphMostly Cloudy
4:51 PM84.9 °F57.9 °F40 %30.01 in10.0 miCalmMostly Cloudy
5:51 PM84.9 °F59.0 °F41 %30.00 in10.0 miEast (90°)3.5 mphMostly Cloudy
6:51 PM84.0 °F59.0 °F43 %30.00 in10.0 miENE (70°)5.8 mphMostly Cloudy
7:51 PM81.0 °F61.0 °F50 %30.00 in10.0 miENE (70°)5.8 mphMostly Cloudy
8:51 PM81.0 °F60.1 °F49 %30.00 in10.0 miENE (70°)3.5 mphMostly Cloudy
9:51 PM77.0 °F62.1 °F60 %30.03 in10.0 miEast (80°)4.6 mphScattered Clouds
10:51 PM75.9 °F63.0 °F64 %30.03 in10.0 miESE (120°)5.8 mphScattered Clouds
11:51 PM73.9 °F63.0 °F68 %30.04 in10.0 miESE (110°)4.6 mphScattered Clouds
Hourly data recorded from KSTL, located miles away from Chesterfield, Missouri







STORIES FROM OUR PARTNERS